Palm Springs, CA

3:57 PM PDT on August 22, 2017 (GMT -0700)
Palm Springs International

Weather History for KPSP - June, 2013

Change the Weather History Date:

Monday, June 17, 2013

  Actual Average Record
Temperature  
Mean Temperature 90 °F 87 °F  
Max Temperature 108 °F 102 °F 116 °F (1961)
Min Temperature 71 °F 72 °F 48 °F (1953)
Degree Days  
Heating Degree Days 0 0  
Month to date heating degree days 0 0  
Since 1 June heating degree days 0 0  
Since 1 July heating degree days 760 874  
Cooling Degree Days 25 22  
Month to date cooling degree days 405 338  
Year to date cooling degree days 1447 1097  
Since 1 June cooling degree days 405 338  
Growing Degree Days 39 (Base 50)    
Moisture  
Dew Point 41 °F    
Average Humidity 30    
Maximum Humidity 53    
Minimum Humidity 6    
Precipitation  
Precipitation 0.00 in 0.00 in 0.00 in (2017)
Month to date precipitation 0.00 0.04  
Year to date precipitation 0.97 2.92  
Since 1 July precipitation 2.19  
Snow  
Snow 0.00 in - - ()
Month to date snowfall 0.0  
Year to date snowfall 0.0  
Snow Depth 0.00 in    
Sea Level Pressure  
Sea Level Pressure 29.76 in    
Wind  
Wind Speed 4 mph (NNW)    
Max Wind Speed 17 mph    
Max Gust Speed 24 mph    
Visibility 10 miles    
Events      
T = Trace of Precipitation, MM = Missing Value Source: NWS Daily Summary

Daily Weather History Graph

Daily Weather History Graph

Search for Another Location

Airport or City:

Trip Planner

Search our weather history database for the weather conditions in past years. The results will help you decide how hot, cold, wet, or windy it might be!

Date:

Astronomy

Jun. 17, 2013 Rise Set
Actual Time 5:35 AM PDT 7:59 PM PDT
Civil Twilight 5:05 AM PDT 8:28 PM PDT
Nautical Twilight 4:30 AM PDT 9:04 PM PDT
Astronomical Twilight 3:50 AM PDT 9:43 PM PDT
Moon 1:55 PM PDT (6/17) 12:58 AM PDT (6/17)
Length of Visible Light 15h 22m
Length of Day
14h 24m
First Quarter, 61% of the Moon is Illuminated
Jun 17
First Quarter
Jun 23
Full
Jun 29
Last Quarter
Jul 8
New
Jul 15
First Quarter

Hourly Weather History & Observations

Time (PDT) Temp. Dew Point Humidity Pressure Visibility Wind Dir Wind Speed Gust Speed Precip Events Conditions
12:53 AM 80.1 °F 46.9 °F 31% 29.78 in 10.0 mi Calm Calm - N/A   Clear
1:53 AM 78.1 °F 48.0 °F 35% 29.78 in 10.0 mi Calm Calm - N/A   Clear
2:53 AM 77.0 °F 48.9 °F 37% 29.78 in 10.0 mi SE 3.5 mph - N/A   Clear
3:53 AM 77.0 °F 48.9 °F 37% 29.78 in 10.0 mi Calm Calm - N/A   Clear
4:53 AM 72.0 °F 54.0 °F 53% 29.79 in 10.0 mi Calm Calm - N/A   Clear
5:53 AM 75.0 °F 52.0 °F 44% 29.80 in 10.0 mi Calm Calm - N/A   Clear
6:53 AM 77.0 °F 50.0 °F 39% 29.81 in 10.0 mi Calm Calm - N/A   Clear
7:53 AM 81.0 °F 46.0 °F 29% 29.82 in 10.0 mi Calm Calm - N/A   Clear
8:53 AM 88.0 °F 45.0 °F 22% 29.82 in 10.0 mi Calm Calm - N/A   Clear
9:53 AM 93.0 °F 39.0 °F 15% 29.82 in 10.0 mi Calm Calm - N/A   Clear
10:53 AM 98.1 °F 30.0 °F 9% 29.82 in 10.0 mi Calm Calm - N/A   Clear
11:53 AM 100.0 °F 26.1 °F 7% 29.81 in 10.0 mi ENE 5.8 mph - N/A   Clear
12:53 PM 102.0 °F 23.0 °F 6% 29.80 in 10.0 mi South 8.1 mph - N/A   Clear
1:53 PM 102.0 °F 21.9 °F 6% 29.77 in 10.0 mi Calm Calm - N/A   Clear
2:53 PM 106.0 °F 30.0 °F 7% 29.74 in 10.0 mi East 11.5 mph 17.3 mph N/A   Clear
3:53 PM 106.0 °F 33.1 °F 8% 29.73 in 10.0 mi North 13.8 mph 23.0 mph N/A   Clear
4:53 PM 105.1 °F 39.0 °F 10% 29.71 in 10.0 mi NW 17.3 mph 24.2 mph N/A   Clear
5:53 PM 102.9 °F 43.0 °F 13% 29.70 in 10.0 mi NW 17.3 mph 23.0 mph N/A   Clear
6:53 PM 99.0 °F 46.0 °F 16% 29.70 in 10.0 mi NW 20.7 mph 26.5 mph N/A   Clear
7:53 PM 95.0 °F 46.0 °F 19% 29.70 in 10.0 mi NW 19.6 mph 29.9 mph N/A   Clear
8:53 PM 93.0 °F 46.0 °F 20% 29.70 in 10.0 mi NW 18.4 mph 26.5 mph N/A   Clear
9:53 PM 91.0 °F 45.0 °F 20% 29.72 in 10.0 mi NW 17.3 mph 25.3 mph N/A   Clear
10:53 PM 89.1 °F 45.0 °F 22% 29.72 in 10.0 mi NW 13.8 mph 20.7 mph N/A   Clear
11:53 PM 88.0 °F 43.0 °F 21% 29.71 in 10.0 mi WNW 8.1 mph - N/A   Clear